Leadville, CO

5:56 PM MST on February 27, 2017 (GMT -0700)
Lake County

Weather History for KLXV - December, 2013

Change the Weather History Date:

Thursday, December 12, 2013

  Actual Average Record
Temperature  
Mean Temperature 22 °F -  
Max Temperature 39 °F 29 °F 45 °F (2014)
Min Temperature 4 °F 4 °F -17 °F (1985)
Degree Days  
Heating Degree Days 43 48  
Month to date heating degree days 668 570  
Since 1 July heating degree days 3895 3975  
Cooling Degree Days 0 0  
Month to date cooling degree days 0 0  
Year to date cooling degree days 0 0  
Moisture  
Dew Point -3 °F    
Average Humidity 39    
Maximum Humidity 60    
Minimum Humidity 18    
Precipitation  
Precipitation 0.00 in 0.02 in 0.35 in (2015)
Month to date precipitation 0.62 0.30  
Year to date precipitation 17.56 12.00  
Sea Level Pressure  
Sea Level Pressure 30.30 in    
Wind  
Wind Speed 9 mph (North)    
Max Wind Speed 14 mph    
Max Gust Speed 21 mph    
Visibility 9 miles    
Events      
T = Trace of Precipitation, MM = Missing Value Source: NWS Daily Summary

Daily Weather History Graph

Daily Weather History Graph

Search for Another Location

Airport or City:

Trip Planner

Search our weather history database for the weather conditions in past years. The results will help you decide how hot, cold, wet, or windy it might be!

Date:

Astronomy

Dec. 12, 2013 Rise Set
Actual Time 7:15 AM MST 4:42 PM MST
Civil Twilight 6:45 AM MST 5:12 PM MST
Nautical Twilight 6:12 AM MST 5:46 PM MST
Astronomical Twilight 5:39 AM MST 6:18 PM MST
Moon 1:50 PM MST (12/12) 2:42 AM MST (12/12)
Length of Visible Light 10h 27m
Length of Day
9h 26m
Waxing Gibbous, 81% of the Moon is Illuminated
Dec 12
Waxing Gibbous
Dec 17
Full
Dec 25
Last Quarter
Jan 1
New
Jan 7
First Quarter

Hourly Weather History & Observations

Time (MST) Temp. Windchill Dew Point Humidity Pressure Visibility Wind Dir Wind Speed Gust Speed Precip Events Conditions
12:53 AM 8.1 °F -0.5 °F -7.1 °F 50% 30.40 in 10.0 mi Variable 4.6 mph - N/A   Clear
1:53 AM 10.0 °F -0.9 °F -6.0 °F 48% 30.40 in 10.0 mi NNE 6.9 mph - N/A   Clear
2:53 AM 6.1 °F -6.8 °F -6.0 °F 58% 30.43 in 9.0 mi ENE 8.1 mph - N/A   Clear
3:53 AM 7.0 °F -4.5 °F -6.0 °F 55% 30.45 in 4.0 mi North 6.9 mph - N/A   Haze
4:53 AM 7.0 °F -7.5 °F -6.0 °F 55% 30.49 in 10.0 mi North 10.4 mph - N/A   Clear
5:53 AM 6.1 °F -4.3 °F -6.0 °F 58% 30.53 in 10.0 mi Variable 5.8 mph - N/A   Clear
6:53 AM 10.0 °F -0.9 °F -5.1 °F 51% 30.51 in 10.0 mi North 6.9 mph - N/A   Clear
7:53 AM 10.0 °F -4.5 °F -4.0 °F 53% 30.56 in 10.0 mi NNE 11.5 mph - N/A   Clear
8:53 AM 23.0 °F 15.8 °F -2.9 °F 32% 30.43 in 10.0 mi Variable 5.8 mph - N/A   Clear
9:53 AM 30.0 °F 22.4 °F -4.0 °F 23% 30.38 in 10.0 mi North 8.1 mph - N/A   Clear
10:53 AM 36.0 °F 30.3 °F -4.0 °F 18% 30.34 in 10.0 mi North 6.9 mph - N/A   Clear
11:53 AM 37.9 °F 32.1 °F -2.0 °F 18% 30.21 in 10.0 mi North 8.1 mph - N/A   Clear
12:53 PM 39.0 °F 32.8 °F -0.9 °F 19% 30.21 in 10.0 mi North 9.2 mph - N/A   Clear
1:53 PM 37.0 °F 28.9 °F 3.0 °F 24% 30.18 in 10.0 mi NW 12.7 mph 20.7 mph N/A   Clear
2:53 PM 37.0 °F 29.3 °F 3.9 °F 25% 30.19 in 10.0 mi NW 11.5 mph - N/A   Clear
3:53 PM 34.0 °F 26.6 °F 3.0 °F 27% 30.19 in 10.0 mi NNW 9.2 mph - N/A   Clear
4:53 PM 27.0 °F 23.0 °F -0.9 °F 30% 30.25 in 10.0 mi NNE 3.5 mph - N/A   Clear
5:53 PM 23.0 °F 11.1 °F 3.0 °F 42% 30.25 in 10.0 mi NE 12.7 mph - N/A   Clear
6:53 PM 21.0 °F 8.1 °F 1.0 °F 42% 30.22 in 10.0 mi NNE 13.8 mph - N/A   Clear
7:53 PM 18.0 °F 6.1 °F -2.9 °F 40% 30.23 in 10.0 mi NE 10.4 mph - N/A   Clear
8:53 PM 16.0 °F 5.3 °F -6.0 °F 38% 30.13 in 10.0 mi NE 8.1 mph - N/A   Clear
9:53 PM 10.9 °F 1.4 °F -5.1 °F 49% 30.10 in 6.0 mi North 5.8 mph - N/A   Haze
10:53 PM 14.0 °F 2.0 °F -2.9 °F 47% 30.03 in 8.0 mi NE 9.2 mph - N/A   Clear
11:53 PM 10.0 °F -3.7 °F -0.9 °F 61% 30.02 in 7.0 mi NE 10.4 mph - N/A   Clear